Regional Weather Roundup
Issued by NWS Kansas City/Pleasant Hill, MO

Home | Current Version | Previous Version | Text Only | Print | Product List | Glossary On
Versions: 1 2 3 4 5 6 7 8 9 10 11 12 13 14 15 16 17 18 19 20 21 22 23 24 25 26 27 28 29 30 31 32 33 34 35 36 37 38 39 40 41 42 43 44 45 46 47 48 49 50
000
ASUS43 KEAX 220111
RWREAX

WEATHER ROUNDUP FOR EASTERN KANSAS AND NORTHWEST MISSOURI
NATIONAL WEATHER SERVICE KANSAS CITY/PLEASANT HILL MO
800 PM CDT TUE OCT 21 2014

KSZ040-057-103>105-MOZ028-029-037-043-220200-
...KANSAS CITY METROPOLITAN AREA...

CITY           SKY/WX    TMP DP  RH WIND       PRES   REMARKS
K.C. INTL      CLEAR     63  44  50 E9        30.08S
K.C. DOWNTOWN  CLEAR     64  45  49 E6        30.07S
LEES SUMMIT    CLEAR     63  43  48 E6        30.10R
OLATHE - IXD   CLEAR     61  44  53 E6        30.08R
OLATHE - OJC   CLEAR     62  44  51 E7        30.08R
LAWRENCE       CLEAR     58  44  60 E5        30.07R

$$

MOZ001>008-011>017-020>025-030>033-038>040-044>046-053-054-220200-
...NORTHERN AND CENTRAL MISSOURI...

CITY           SKY/WX    TMP DP  RH WIND       PRES   REMARKS
ST. JOSEPH     CLEAR     61  43  51 SE8       30.08R
MOSBY          CLEAR     54  45  71 CALM      30.09R
WHITEMAN AFB   CLEAR     58  45  63 E5        30.10R
CLINTON        CLEAR     55  48  76 CALM      30.10R
SEDALIA        CLEAR     60  45  57 E5        30.12R
WARSAW         NOT AVBL
MARSHALL       CLEAR     59  48  67 E6        30.13R
CHILLICOTHE      N/A     61  46  57 E5        30.13R
MOBERLY          N/A     54  41  62 E7        30.15R HAZE
KIRKSVILLE     CLEAR     53  44  71 NE6       30.16R

$$

MOZ041-047>049-056>058-063>065-088>090-097-220200-
...EASTERN AND SOUTHERN MISSOURI...

CITY           SKY/WX    TMP DP  RH WIND       PRES   REMARKS
ST. LOUIS INTL CLEAR     59  42  53 NE8       30.16R
SPIRIT OF STL  CLEAR     50  45  83 CALM      30.15R
COLUMBIA       CLEAR     56  45  66 E7        30.13R
JEFFERSON CITY CLEAR     63  44  50 NE9       30.12R
MEXICO         CLEAR     55  48  76 NE5       30.14R
HANNIBAL       CLEAR     54  39  58 E3        30.17R
ROLLA          CLEAR     57  45  64 E6        30.11R
LEBANON        CLEAR     57  45  62 CALM      30.12R
OSAGE BEACH    CLEAR     57  45  62 CALM      30.11R
SPRINGFIELD    CLEAR     56  47  71 CALM      30.09R
BRANSON        CLEAR     55  48  76 CALM      30.10R
NEVADA         CLEAR     57  48  72 E3        30.10R
JOPLIN         CLEAR     58  51  78 CALM      30.08R
WEST PLAINS    CLEAR     55  46  71 CALM      30.12R

$$

IAZ060-094-KSZ022-034>040-054-083-096-NEZ052-066-093-220200-
...KANSAS...SOUTHEAST NEBRASKA AND IOWA...

CITY           SKY/WX    TMP DP  RH WIND       PRES   REMARKS
TOPEKA         CLEAR     62  45  53 E5        30.06R
MANHATTAN      CLEAR     65  51  60 CALM      30.02R
EMPORIA        CLEAR     64  55  72 SE8       30.05R
CHANUTE        CLEAR     65  55  70 SE5       30.06R
WICHITA        CLEAR     70  59  68 SE8       30.01R
OMAHA          CLEAR     62  39  42 SE12      30.04R
LINCOLN        CLEAR     63  41  44 SE9       30.04R
FALLS CITY     CLEAR     59  38  45 SE6       30.05R
LAMONI         CLEAR     57  45  64 E7        30.12R
DES MOINES     FAIR      59  42  53 E10       30.13S

$$




USA.gov is the U.S. government's official web portal to all federal, state and local government web resources and services.